Time,TemperatureF,DewpointF,PressureIn,WindDirection,WindDirectionDegrees,WindSpeedMPH,WindSpeedGustMPH,Humidity,HourlyPrecipIn,Conditions,Clouds,dailyrainin,SolarRadiationWatts/m^2,SoftwareType,DateUTC
2013-01-03 00:01:00,13.3,4.7,30.47,SSE,148,2.0,4.0,68,0.00,OVC,OVC,0.00,0.0,WeatherDisplay:10.37,2013-01-03 07:01:00,
2013-01-03 00:06:00,13.3,4.7,30.50,SSE,148,1.3,3.4,68,0.00,OVC,OVC,0.00,0.0,WeatherDisplay:10.37,2013-01-03 07:06:00,
2013-01-03 00:11:00,13.4,4.8,30.50,SSE,148,1.1,3.4,68,0.00,OVC,OVC,0.00,0.0,WeatherDisplay:10.37,2013-01-03 07:11:00,
2013-01-03 00:16:00,13.4,4.8,30.49,SSE,148,0.0,3.4,68,0.00,OVC,OVC,0.00,0.0,WeatherDisplay:10.37,2013-01-03 07:16:00,
2013-01-03 00:21:00,13.4,4.8,30.50,SSE,148,1.9,3.4,68,0.00,OVC,OVC,0.00,0.0,WeatherDisplay:10.37,2013-01-03 07:21:00,
2013-01-03 00:26:00,13.5,4.9,30.48,SSE,148,1.0,2.3,68,0.00,OVC,OVC,0.00,0.0,WeatherDisplay:10.37,2013-01-03 07:26:00,
2013-01-03 00:31:00,13.5,4.9,30.48,SSE,148,0.6,2.3,68,0.00,OVC,OVC,0.00,0.0,WeatherDisplay:10.37,2013-01-03 07:31:00,
2013-01-03 00:36:00,13.6,5.0,30.48,SSE,148,0.0,0.0,68,0.00,OVC,OVC,0.00,0.0,WeatherDisplay:10.37,2013-01-03 07:36:00,
2013-01-03 00:41:00,13.6,5.0,30.48,SSE,148,1.6,3.4,68,0.00,OVC,OVC,0.00,0.0,WeatherDisplay:10.37,2013-01-03 07:41:00,
2013-01-03 00:46:00,13.7,5.1,30.48,SSE,148,2.4,3.4,68,0.00,OVC,OVC,0.00,0.0,WeatherDisplay:10.37,2013-01-03 07:46:00,
2013-01-03 00:51:00,13.7,5.1,30.48,SSE,148,0.5,3.4,68,0.00,OVC,OVC,0.00,0.0,WeatherDisplay:10.37,2013-01-03 07:51:00,
2013-01-03 00:56:00,13.7,5.1,30.48,SSE,148,2.2,3.4,68,0.00,OVC,OVC,0.00,0.0,WeatherDisplay:10.37,2013-01-03 07:56:00,
2013-01-03 01:01:00,13.8,5.2,30.48,SSE,148,1.2,2.3,68,0.00,OVC,OVC,0.00,0.0,WeatherDisplay:10.37,2013-01-03 08:01:00,
2013-01-03 01:06:00,13.8,5.2,30.48,SSE,148,0.6,2.3,68,0.00,OVC,OVC,0.00,0.0,WeatherDisplay:10.37,2013-01-03 08:06:00,
2013-01-03 01:11:00,13.9,5.3,30.48,SSE,148,0.8,3.4,68,0.00,OVC,OVC,0.00,0.0,WeatherDisplay:10.37,2013-01-03 08:11:00,
2013-01-03 01:16:00,13.9,5.3,30.48,SSE,148,0.8,2.3,68,0.00,OVC,OVC,0.00,0.0,WeatherDisplay:10.37,2013-01-03 08:16:00,
2013-01-03 01:21:00,14.0,5.4,30.48,SSE,148,0.0,1.1,68,0.00,OVC,OVC,0.00,0.0,WeatherDisplay:10.37,2013-01-03 08:21:00,
2013-01-03 01:26:00,14.1,5.5,30.49,SSE,148,0.7,2.3,68,0.00,OVC,OVC,0.00,0.0,WeatherDisplay:10.37,2013-01-03 08:26:00,
2013-01-03 01:31:00,14.1,5.5,30.49,SSE,148,0.2,1.1,68,0.00,OVC,OVC,0.00,0.0,WeatherDisplay:10.37,2013-01-03 08:31:00,
2013-01-03 01:36:00,14.2,5.6,30.49,SSE,148,0.0,0.0,68,0.00,OVC,OVC,0.00,0.0,WeatherDisplay:10.37,2013-01-03 08:36:00,
2013-01-03 01:41:00,14.3,5.7,30.49,SSE,148,1.2,2.3,68,0.00,OVC,OVC,0.00,0.0,WeatherDisplay:10.37,2013-01-03 08:41:00,
2013-01-03 01:46:00,14.4,5.8,30.50,SSE,148,0.2,1.1,68,0.00,OVC,OVC,0.00,0.0,WeatherDisplay:10.37,2013-01-03 08:46:00,
2013-01-03 01:51:00,14.5,5.9,30.49,SSE,148,0.6,2.3,68,0.00,OVC,OVC,0.00,0.0,WeatherDisplay:10.37,2013-01-03 08:51:00,
2013-01-03 01:56:00,14.6,6.0,30.50,SSE,148,0.2,1.1,68,0.00,OVC,OVC,0.00,0.0,WeatherDisplay:10.37,2013-01-03 08:56:00,
2013-01-03 02:01:00,14.7,6.0,30.50,SSE,148,1.2,3.4,68,0.00,OVC,OVC,0.00,0.0,WeatherDisplay:10.37,2013-01-03 09:01:00,
2013-01-03 02:06:00,14.9,6.2,30.50,SSE,148,0.2,1.1,68,0.00,OVC,OVC,0.00,0.0,WeatherDisplay:10.37,2013-01-03 09:06:00,
2013-01-03 02:11:00,15.2,6.5,30.50,SSE,148,0.7,2.3,68,0.00,OVC,OVC,0.00,0.0,WeatherDisplay:10.37,2013-01-03 09:11:00,
2013-01-03 02:16:00,15.3,6.3,30.50,SSE,148,1.1,3.0,67,0.00,OVC,OVC,0.00,0.0,WeatherDisplay:10.37,2013-01-03 09:16:00,
2013-01-03 02:21:00,15.4,6.4,30.50,SSE,148,0.0,0.0,67,0.00,OVC,OVC,0.00,0.0,WeatherDisplay:10.37,2013-01-03 09:21:00,
2013-01-03 02:26:00,15.5,6.5,30.49,SSE,148,0.5,2.3,67,0.00,OVC,OVC,0.00,0.0,WeatherDisplay:10.37,2013-01-03 09:26:00,
2013-01-03 02:31:00,15.6,6.6,30.49,SSE,152,0.5,3.4,67,0.00,OVC,OVC,0.00,0.0,WeatherDisplay:10.37,2013-01-03 09:31:00,
2013-01-03 02:36:00,15.7,6.3,30.49,SSE,153,0.0,0.0,66,0.00,OVC,OVC,0.00,0.0,WeatherDisplay:10.37,2013-01-03 09:36:00,
2013-01-03 02:41:00,16.0,6.0,30.49,SW,214,4.3,6.9,64,0.00,OVC,OVC,0.00,0.0,WeatherDisplay:10.37,2013-01-03 09:41:00,
2013-01-03 02:46:00,16.2,5.8,30.49,SSW,213,2.3,3.4,63,0.00,OVC,OVC,0.00,0.0,WeatherDisplay:10.37,2013-01-03 09:46:00,
2013-01-03 02:51:00,16.4,5.6,30.49,SSW,213,1.6,4.6,62,0.00,OVC,OVC,0.00,0.0,WeatherDisplay:10.37,2013-01-03 09:51:00,
2013-01-03 02:56:00,16.5,5.0,30.49,SSW,211,1.7,3.4,60,0.00,OVC,OVC,0.00,0.0,WeatherDisplay:10.37,2013-01-03 09:56:00,
2013-01-03 03:01:00,16.6,4.7,30.49,SSW,210,2.9,5.8,59,0.00,BKN,BKN,0.00,0.0,WeatherDisplay:10.37,2013-01-03 10:01:00,
2013-01-03 03:06:00,16.6,4.4,30.49,SW,215,2.3,3.4,58,0.00,BKN,BKN,0.00,0.0,WeatherDisplay:10.37,2013-01-03 10:06:00,
2013-01-03 03:11:00,16.6,4.4,30.49,SSW,213,0.9,3.4,58,0.00,BKN,BKN,0.00,0.0,WeatherDisplay:10.37,2013-01-03 10:11:00,
2013-01-03 03:16:00,16.5,3.9,30.48,SSW,213,1.5,3.4,57,0.00,BKN,BKN,0.00,0.0,WeatherDisplay:10.37,2013-01-03 10:16:00,
2013-01-03 03:21:00,16.4,3.4,30.49,SSW,211,0.6,3.4,56,0.00,BKN,BKN,0.00,0.0,WeatherDisplay:10.37,2013-01-03 10:21:00,
2013-01-03 03:26:00,16.3,3.3,30.49,SSW,194,4.0,6.9,56,0.00,BKN,BKN,0.00,0.0,WeatherDisplay:10.37,2013-01-03 10:26:00,
2013-01-03 03:31:00,16.2,2.8,30.49,SSW,198,0.5,2.3,55,0.00,BKN,BKN,0.00,0.0,WeatherDisplay:10.37,2013-01-03 10:31:00,
2013-01-03 03:36:00,16.1,2.7,30.49,SSW,198,0.6,2.3,55,0.00,BKN,BKN,0.00,0.0,WeatherDisplay:10.37,2013-01-03 10:36:00,
2013-01-03 03:41:00,16.0,2.7,30.49,SSW,207,2.1,5.8,55,0.00,BKN,BKN,0.00,0.0,WeatherDisplay:10.37,2013-01-03 10:41:00,
2013-01-03 03:46:00,15.9,2.6,30.49,SSW,205,0.9,3.4,55,0.00,BKN,BKN,0.00,0.0,WeatherDisplay:10.37,2013-01-03 10:46:00,
2013-01-03 03:51:00,15.7,2.4,30.49,SSW,205,2.3,3.4,55,0.00,BKN,BKN,0.00,0.0,WeatherDisplay:10.37,2013-01-03 10:51:00,
2013-01-03 03:56:00,15.6,1.9,30.49,SSW,205,1.5,3.4,54,0.00,BKN,BKN,0.00,0.0,WeatherDisplay:10.37,2013-01-03 10:56:00,
2013-01-03 04:01:00,15.5,1.8,30.49,South,169,2.2,3.4,54,0.00,SCT,SCT,0.00,0.0,WeatherDisplay:10.37,2013-01-03 11:01:00,
2013-01-03 04:06:00,15.4,1.7,30.51,South,188,1.3,3.4,54,0.00,SCT,SCT,0.00,0.0,WeatherDisplay:10.37,2013-01-03 11:06:00,
2013-01-03 04:11:00,15.3,1.6,30.51,SSW,192,2.3,3.4,54,0.00,SCT,SCT,0.00,0.0,WeatherDisplay:10.37,2013-01-03 11:11:00,
2013-01-03 04:16:00,15.2,1.9,30.51,South,191,0.0,2.3,55,0.00,SCT,SCT,0.00,0.0,WeatherDisplay:10.37,2013-01-03 11:16:00,
2013-01-03 04:21:00,15.1,2.2,30.51,South,191,0.8,2.3,56,0.00,SCT,SCT,0.00,0.0,WeatherDisplay:10.37,2013-01-03 11:21:00,
2013-01-03 04:26:00,14.8,1.9,30.51,South,191,1.7,3.4,56,0.00,SCT,SCT,0.00,0.0,WeatherDisplay:10.37,2013-01-03 11:26:00,
2013-01-03 04:31:00,14.5,1.6,30.51,South,191,0.6,3.4,56,0.00,SCT,SCT,0.00,0.0,WeatherDisplay:10.37,2013-01-03 11:31:00,
2013-01-03 04:36:00,14.3,1.4,30.51,South,191,0.2,2.0,56,0.00,SCT,SCT,0.00,0.0,WeatherDisplay:10.37,2013-01-03 11:36:00,
2013-01-03 04:41:00,14.1,1.6,30.51,South,191,1.7,3.4,57,0.00,SCT,SCT,0.00,0.0,WeatherDisplay:10.37,2013-01-03 11:41:00,
2013-01-03 04:46:00,13.8,1.7,30.51,South,190,0.5,3.4,58,0.00,SCT,SCT,0.00,0.0,WeatherDisplay:10.37,2013-01-03 11:46:00,
2013-01-03 04:51:00,13.5,1.8,30.51,South,191,1.7,3.4,59,0.00,SCT,SCT,0.00,0.0,WeatherDisplay:10.37,2013-01-03 11:51:00,
2013-01-03 04:56:00,13.3,1.3,30.52,South,190,0.7,2.3,58,0.00,SCT,SCT,0.00,0.0,WeatherDisplay:10.37,2013-01-03 11:56:00,
2013-01-03 05:01:00,13.0,1.3,30.52,South,190,1.1,2.3,59,0.00,FEW,FEW,0.00,0.0,WeatherDisplay:10.37,2013-01-03 12:01:00,
2013-01-03 05:06:00,12.8,1.5,30.52,South,190,0.1,1.1,60,0.00,FEW,FEW,0.00,0.0,WeatherDisplay:10.37,2013-01-03 12:06:00,
2013-01-03 05:11:00,12.6,1.3,30.52,South,190,0.0,1.1,60,0.00,FEW,FEW,0.00,0.0,WeatherDisplay:10.37,2013-01-03 12:11:00,
2013-01-03 05:16:00,12.3,1.0,30.53,South,190,0.1,1.1,60,0.00,FEW,FEW,0.00,0.0,WeatherDisplay:10.37,2013-01-03 12:16:00,
2013-01-03 05:21:00,12.2,0.9,30.53,South,190,0.7,2.3,60,0.00,FEW,FEW,0.00,0.0,WeatherDisplay:10.37,2013-01-03 12:21:00,
2013-01-03 05:26:00,12.1,0.9,30.53,South,190,1.1,2.3,60,0.00,FEW,FEW,0.00,0.0,WeatherDisplay:10.37,2013-01-03 12:26:00,
2013-01-03 05:31:00,12.1,0.9,30.53,South,190,1.2,3.4,60,0.00,FEW,FEW,0.00,0.0,WeatherDisplay:10.37,2013-01-03 12:31:00,
2013-01-03 05:36:00,11.9,0.7,30.53,South,190,1.2,2.3,60,0.00,FEW,FEW,0.00,0.0,WeatherDisplay:10.37,2013-01-03 12:36:00,
2013-01-03 05:41:00,12.0,0.8,30.53,South,189,0.2,2.3,60,0.00,FEW,FEW,0.00,0.0,WeatherDisplay:10.37,2013-01-03 12:41:00,
2013-01-03 05:46:00,11.9,1.0,30.53,South,189,0.7,2.3,61,0.00,FEW,FEW,0.00,0.0,WeatherDisplay:10.37,2013-01-03 12:46:00,
2013-01-03 05:51:00,11.8,0.9,30.53,South,185,1.8,3.4,61,0.00,FEW,FEW,0.00,0.0,WeatherDisplay:10.37,2013-01-03 12:51:00,
2013-01-03 05:56:00,11.6,0.7,30.53,South,184,0.3,1.1,61,0.00,FEW,FEW,0.00,0.0,WeatherDisplay:10.37,2013-01-03 12:56:00,
2013-01-03 06:01:00,11.5,1.0,30.53,South,185,1.1,3.4,62,0.00,FEW,FEW,0.00,0.0,WeatherDisplay:10.37,2013-01-03 13:01:00,
2013-01-03 06:06:00,11.5,0.6,30.54,SSW,194,2.3,3.4,61,0.00,FEW,FEW,0.00,0.0,WeatherDisplay:10.37,2013-01-03 13:06:00,
2013-01-03 06:11:00,11.7,0.1,30.54,SSW,196,3.4,4.6,59,0.00,FEW,FEW,0.00,0.0,WeatherDisplay:10.37,2013-01-03 13:11:00,
2013-01-03 06:16:00,12.1,-0.2,30.54,South,191,1.3,3.4,57,0.00,FEW,FEW,0.00,0.0,WeatherDisplay:10.37,2013-01-03 13:16:00,
2013-01-03 06:21:00,12.5,-0.2,30.52,SSW,200,4.1,8.1,56,0.00,FEW,FEW,0.00,0.0,WeatherDisplay:10.37,2013-01-03 13:21:00,
2013-01-03 06:26:00,12.8,-0.7,30.52,SSW,194,1.1,3.4,54,0.00,FEW,FEW,0.00,0.0,WeatherDisplay:10.37,2013-01-03 13:26:00,
2013-01-03 06:31:00,13.1,-0.9,30.52,South,173,4.3,6.9,53,0.00,FEW,FEW,0.00,0.0,WeatherDisplay:10.37,2013-01-03 13:31:00,
2013-01-03 06:36:00,13.4,-0.6,30.52,SSW,193,1.8,5.0,53,0.00,FEW,FEW,0.00,0.0,WeatherDisplay:10.37,2013-01-03 13:36:00,
2013-01-03 06:41:00,13.4,-1.0,30.53,South,183,1.9,6.0,52,0.00,FEW,FEW,0.00,0.0,WeatherDisplay:10.37,2013-01-03 13:41:00,
2013-01-03 06:46:00,13.5,-0.9,30.52,SW,218,4.3,10.3,52,0.00,FEW,FEW,0.00,0.0,WeatherDisplay:10.37,2013-01-03 13:46:00,
2013-01-03 06:51:00,13.6,-0.8,30.53,South,191,2.6,5.8,52,0.00,FEW,FEW,0.00,0.0,WeatherDisplay:10.37,2013-01-03 13:51:00,
2013-01-03 06:56:00,13.5,-1.3,30.52,SSW,208,1.5,3.4,51,0.00,FEW,FEW,0.00,0.0,WeatherDisplay:10.37,2013-01-03 13:56:00,
2013-01-03 07:01:00,13.5,-1.3,30.52,SSW,197,2.5,4.0,51,0.00,CLR,CLR,0.00,0.0,WeatherDisplay:10.37,2013-01-03 14:01:00,
2013-01-03 07:06:00,13.5,-1.7,30.52,SSW,205,3.6,6.9,50,0.00,CLR,CLR,0.00,0.0,WeatherDisplay:10.37,2013-01-03 14:06:00,
2013-01-03 07:11:00,13.5,-1.7,30.52,SSW,196,2.2,9.2,50,0.00,CLR,CLR,0.00,0.0,WeatherDisplay:10.37,2013-01-03 14:11:00,
2013-01-03 07:16:00,13.6,-1.6,30.52,SSW,213,4.2,6.9,50,0.00,CLR,CLR,0.00,0.0,WeatherDisplay:10.37,2013-01-03 14:16:00,
2013-01-03 07:21:00,13.6,-1.6,30.52,SSW,209,1.8,3.4,50,0.00,CLR,CLR,0.00,5.0,WeatherDisplay:10.37,2013-01-03 14:21:00,
2013-01-03 07:26:00,13.5,-2.1,30.52,SW,214,2.4,5.8,49,0.00,CLR,CLR,0.00,7.0,WeatherDisplay:10.37,2013-01-03 14:26:00,
2013-01-03 07:31:00,13.5,-2.1,30.52,SSW,192,1.9,3.4,49,0.00,CLR,CLR,0.00,9.0,WeatherDisplay:10.37,2013-01-03 14:31:00,
2013-01-03 07:36:00,13.5,-2.1,30.52,SSW,211,3.8,10.3,49,0.00,CLR,CLR,0.00,11.0,WeatherDisplay:10.37,2013-01-03 14:36:00,
2013-01-03 07:41:00,13.5,-2.1,30.53,SSW,211,2.3,9.2,49,0.00,CLR,CLR,0.00,14.0,WeatherDisplay:10.37,2013-01-03 14:41:00,
2013-01-03 07:46:00,13.5,-2.1,30.52,South,178,4.2,6.9,49,0.00,CLR,CLR,0.00,16.0,WeatherDisplay:10.37,2013-01-03 14:46:00,
2013-01-03 07:51:00,13.6,-2.5,30.52,SSW,200,3.6,5.8,48,0.00,CLR,CLR,0.00,62.0,WeatherDisplay:10.37,2013-01-03 14:51:00,
2013-01-03 07:56:00,13.7,-2.4,30.52,SSW,195,1.2,3.4,48,0.00,CLR,CLR,0.00,79.0,WeatherDisplay:10.37,2013-01-03 14:56:00,
2013-01-03 08:01:00,14.1,-2.0,30.52,South,182,2.1,4.0,48,0.00,CLR,CLR,0.00,91.0,WeatherDisplay:10.37,2013-01-03 15:01:00,
2013-01-03 08:06:00,14.5,-2.1,30.53,South,186,1.6,3.4,47,0.00,CLR,CLR,0.00,109.0,WeatherDisplay:10.37,2013-01-03 15:06:00,
2013-01-03 08:11:00,15.0,-2.1,30.54,SSW,213,3.9,6.9,46,0.00,CLR,CLR,0.00,123.0,WeatherDisplay:10.37,2013-01-03 15:11:00,
2013-01-03 08:16:00,15.3,-1.8,30.54,SW,229,3.3,7.0,46,0.00,CLR,CLR,0.00,137.0,WeatherDisplay:10.37,2013-01-03 15:16:00,
2013-01-03 08:21:00,15.5,-1.6,30.53,SW,223,3.6,6.0,46,0.00,CLR,CLR,0.00,155.0,WeatherDisplay:10.37,2013-01-03 15:21:00,
2013-01-03 08:26:00,15.8,-1.8,30.53,SSW,196,4.5,8.1,45,0.00,CLR,CLR,0.00,165.0,WeatherDisplay:10.37,2013-01-03 15:26:00,
2013-01-03 08:31:00,16.0,-1.6,30.53,SW,225,6.4,10.3,45,0.00,CLR,CLR,0.00,179.0,WeatherDisplay:10.37,2013-01-03 15:31:00,
2013-01-03 08:36:00,16.3,-1.4,30.53,SSW,198,2.2,6.0,45,0.00,CLR,CLR,0.00,192.0,WeatherDisplay:10.37,2013-01-03 15:36:00,
2013-01-03 08:41:00,16.6,-1.6,30.53,SW,214,4.8,9.2,44,0.00,CLR,CLR,0.00,202.0,WeatherDisplay:10.37,2013-01-03 15:41:00,
2013-01-03 08:46:00,16.9,-1.3,30.54,SSW,209,4.3,5.8,44,0.00,CLR,CLR,0.00,214.0,WeatherDisplay:10.37,2013-01-03 15:46:00,
2013-01-03 08:51:00,17.4,-1.3,30.54,SW,214,4.8,6.9,43,0.00,CLR,CLR,0.00,229.0,WeatherDisplay:10.37,2013-01-03 15:51:00,
2013-01-03 08:56:00,17.7,-1.5,30.52,SSW,206,4.3,10.3,42,0.00,CLR,CLR,0.00,239.0,WeatherDisplay:10.37,2013-01-03 15:56:00,
2013-01-03 09:01:00,18.1,-1.2,30.52,SW,217,5.9,11.5,42,0.00,CLR,CLR,0.00,253.0,WeatherDisplay:10.37,2013-01-03 16:01:00,
2013-01-03 09:06:00,18.4,-0.9,30.55,SSW,207,4.7,10.3,42,0.00,CLR,CLR,0.00,262.0,WeatherDisplay:10.37,2013-01-03 16:06:00,
2013-01-03 09:11:00,18.9,-1.0,30.54,SSW,196,3.2,4.6,41,0.00,CLR,CLR,0.00,276.0,WeatherDisplay:10.37,2013-01-03 16:11:00,
2013-01-03 09:16:00,19.3,-0.6,30.54,SSW,201,3.1,5.8,41,0.00,CLR,CLR,0.00,287.0,WeatherDisplay:10.37,2013-01-03 16:16:00,
2013-01-03 09:21:00,19.7,-0.8,30.54,South,183,2.6,11.5,40,0.00,CLR,CLR,0.00,299.0,WeatherDisplay:10.37,2013-01-03 16:21:00,
2013-01-03 09:26:00,20.2,-0.3,30.54,SSW,201,2.7,5.8,40,0.00,CLR,CLR,0.00,309.0,WeatherDisplay:10.37,2013-01-03 16:26:00,
2013-01-03 09:31:00,20.8,0.2,30.53,SSW,201,3.4,5.8,40,0.00,CLR,CLR,0.00,322.0,WeatherDisplay:10.37,2013-01-03 16:31:00,
2013-01-03 09:36:00,21.1,-0.6,30.53,SSW,201,3.0,4.0,38,0.00,CLR,CLR,0.00,332.0,WeatherDisplay:10.37,2013-01-03 16:36:00,
2013-01-03 09:41:00,21.5,-0.2,30.52,South,188,3.5,9.2,38,0.00,CLR,CLR,0.00,343.0,WeatherDisplay:10.37,2013-01-03 16:41:00,
2013-01-03 09:46:00,21.9,-0.4,30.52,SW,215,5.0,11.5,37,0.00,CLR,CLR,0.00,353.0,WeatherDisplay:10.37,2013-01-03 16:46:00,
2013-01-03 09:51:00,22.2,-0.2,30.52,South,189,4.0,5.8,37,0.00,CLR,CLR,0.00,362.0,WeatherDisplay:10.37,2013-01-03 16:51:00,
2013-01-03 09:56:00,22.7,-0.3,30.51,SSW,199,4.4,9.0,36,0.00,CLR,CLR,0.00,373.0,WeatherDisplay:10.37,2013-01-03 16:56:00,
2013-01-03 10:01:00,23.3,0.8,30.51,South,173,2.4,4.6,37,0.00,CLR,CLR,0.00,381.0,WeatherDisplay:10.37,2013-01-03 17:01:00,
2013-01-03 10:06:00,23.6,0.5,30.54,SSW,195,1.9,5.0,36,0.00,CLR,CLR,0.00,392.0,WeatherDisplay:10.37,2013-01-03 17:06:00,
2013-01-03 10:11:00,24.0,0.3,30.54,SW,219,3.0,5.8,35,0.00,CLR,CLR,0.00,401.0,WeatherDisplay:10.37,2013-01-03 17:11:00,
2013-01-03 10:16:00,24.7,0.9,30.52,SSW,208,2.7,5.0,35,0.00,CLR,CLR,0.00,410.0,WeatherDisplay:10.37,2013-01-03 17:16:00,
2013-01-03 10:21:00,25.2,0.7,30.52,SSW,196,3.6,4.6,34,0.00,CLR,CLR,0.00,418.0,WeatherDisplay:10.37,2013-01-03 17:21:00,
2013-01-03 10:26:00,25.8,1.2,30.52,South,189,1.7,4.0,34,0.00,CLR,CLR,0.00,425.0,WeatherDisplay:10.37,2013-01-03 17:26:00,
2013-01-03 10:31:00,26.1,0.9,30.51,SSW,194,3.2,6.9,33,0.00,CLR,CLR,0.00,432.0,WeatherDisplay:10.37,2013-01-03 17:31:00,
2013-01-03 10:36:00,26.7,1.4,30.50,SSW,202,3.1,5.8,33,0.00,CLR,CLR,0.00,438.0,WeatherDisplay:10.37,2013-01-03 17:36:00,
2013-01-03 10:41:00,27.3,1.9,30.50,SSW,208,1.3,3.4,33,0.00,CLR,CLR,0.00,446.0,WeatherDisplay:10.37,2013-01-03 17:41:00,
2013-01-03 10:46:00,27.9,1.8,30.50,SSW,213,3.6,4.6,32,0.00,CLR,CLR,0.00,454.0,WeatherDisplay:10.37,2013-01-03 17:46:00,
2013-01-03 10:51:00,28.4,2.2,30.50,SSW,211,2.3,5.8,32,0.00,CLR,CLR,0.00,461.0,WeatherDisplay:10.37,2013-01-03 17:51:00,
2013-01-03 10:56:00,28.6,1.7,30.48,SSW,211,2.1,4.6,31,0.00,CLR,CLR,0.00,462.0,WeatherDisplay:10.37,2013-01-03 17:56:00,
2013-01-03 11:01:00,28.9,1.3,30.48,SW,218,3.6,5.0,30,0.00,CLR,CLR,0.00,471.0,WeatherDisplay:10.37,2013-01-03 18:01:00,
2013-01-03 11:06:00,29.5,1.8,30.48,SSW,209,2.1,7.0,30,0.00,CLR,CLR,0.00,475.0,WeatherDisplay:10.37,2013-01-03 18:06:00,
2013-01-03 11:11:00,29.6,1.2,30.48,SW,226,3.0,5.8,29,0.00,CLR,CLR,0.00,478.0,WeatherDisplay:10.37,2013-01-03 18:11:00,
2013-01-03 11:16:00,29.9,1.4,30.47,SW,225,4.9,9.2,29,0.00,CLR,CLR,0.00,483.0,WeatherDisplay:10.37,2013-01-03 18:16:00,
2013-01-03 11:21:00,30.3,1.8,30.47,SW,222,4.4,5.8,29,0.00,CLR,CLR,0.00,487.0,WeatherDisplay:10.37,2013-01-03 18:21:00,
2013-01-03 11:26:00,30.8,2.2,30.45,SSW,202,2.0,3.4,29,0.00,CLR,CLR,0.00,490.0,WeatherDisplay:10.37,2013-01-03 18:26:00,
2013-01-03 11:31:00,31.5,2.8,30.45,SSW,202,1.0,3.0,29,0.00,CLR,CLR,0.00,494.0,WeatherDisplay:10.37,2013-01-03 18:31:00,
2013-01-03 11:36:00,32.3,2.8,30.45,SSE,156,0.7,2.3,28,0.00,CLR,CLR,0.00,496.0,WeatherDisplay:10.37,2013-01-03 18:36:00,
2013-01-03 11:41:00,32.3,2.0,30.44,SSW,207,4.7,8.1,27,0.00,CLR,CLR,0.00,497.0,WeatherDisplay:10.37,2013-01-03 18:41:00,
2013-01-03 11:46:00,32.4,2.9,30.44,SW,215,2.7,7.0,28,0.00,CLR,CLR,0.00,499.0,WeatherDisplay:10.37,2013-01-03 18:46:00,
2013-01-03 11:51:00,32.4,2.9,30.44,SW,229,2.8,3.4,28,0.00,CLR,CLR,0.00,501.0,WeatherDisplay:10.37,2013-01-03 18:51:00,
2013-01-03 11:56:00,32.4,2.1,30.43,SSW,209,3.6,4.6,27,0.00,CLR,CLR,0.00,501.0,WeatherDisplay:10.37,2013-01-03 18:56:00,
2013-01-03 12:01:00,32.5,2.2,30.41,SSW,213,2.9,4.6,27,0.00,CLR,CLR,0.00,503.0,WeatherDisplay:10.37,2013-01-03 19:01:00,
2013-01-03 12:06:00,32.8,1.6,30.41,SW,217,3.2,5.8,26,0.00,CLR,CLR,0.00,503.0,WeatherDisplay:10.37,2013-01-03 19:06:00,
2013-01-03 12:11:00,33.0,2.6,30.41,SW,217,2.2,4.6,27,0.00,CLR,CLR,0.00,501.0,WeatherDisplay:10.37,2013-01-03 19:11:00,
2013-01-03 12:16:00,33.8,2.5,30.39,South,180,1.3,3.4,26,0.00,CLR,CLR,0.00,499.0,WeatherDisplay:10.37,2013-01-03 19:16:00,
2013-01-03 12:51:00,34.9,2.6,30.37,SSW,195,1.0,3.4,25,0.00,CLR,CLR,0.00,485.0,WeatherDisplay:10.37,2013-01-03 19:51:00,
2013-01-03 12:56:00,35.1,0.9,30.36,SSW,194,1.5,5.0,23,0.00,CLR,CLR,0.00,480.0,WeatherDisplay:10.37,2013-01-03 19:56:00,
2013-01-03 13:01:00,35.2,1.9,30.37,SE,133,1.4,3.4,24,0.00,FEW,FEW,0.00,476.0,WeatherDisplay:10.37,2013-01-03 20:01:00,
2013-01-03 13:06:00,35.6,1.4,30.35,SE,134,2.5,4.6,23,0.00,FEW,FEW,0.00,473.0,WeatherDisplay:10.37,2013-01-03 20:06:00,
2013-01-03 13:11:00,35.7,0.5,30.35,SE,134,0.0,2.3,22,0.00,FEW,FEW,0.00,468.0,WeatherDisplay:10.37,2013-01-03 20:11:00,
2013-01-03 13:16:00,35.9,0.7,30.34,ESE,107,3.2,5.0,22,0.00,FEW,FEW,0.00,462.0,WeatherDisplay:10.37,2013-01-03 20:16:00,
2013-01-03 13:21:00,36.0,0.8,30.34,ESE,110,3.3,4.0,22,0.00,FEW,FEW,0.00,457.0,WeatherDisplay:10.37,2013-01-03 20:21:00,
2013-01-03 13:26:00,36.1,0.8,30.34,ESE,110,1.2,3.4,22,0.00,FEW,FEW,0.00,450.0,WeatherDisplay:10.37,2013-01-03 20:26:00,
2013-01-03 13:31:00,36.2,-0.1,30.34,ESE,110,0.6,2.3,21,0.00,FEW,FEW,0.00,443.0,WeatherDisplay:10.37,2013-01-03 20:31:00,
2013-01-03 13:36:00,36.5,0.2,30.33,SE,140,0.5,2.3,21,0.00,FEW,FEW,0.00,438.0,WeatherDisplay:10.37,2013-01-03 20:36:00,
2013-01-03 13:41:00,37.1,1.7,30.32,SE,144,0.2,1.0,22,0.00,FEW,FEW,0.00,425.0,WeatherDisplay:10.37,2013-01-03 20:41:00,
2013-01-03 13:46:00,37.2,0.8,30.32,South,180,0.3,2.3,21,0.00,FEW,FEW,0.00,420.0,WeatherDisplay:10.37,2013-01-03 20:46:00,
2013-01-03 13:51:00,37.1,0.7,30.32,South,180,0.2,1.1,21,0.00,FEW,FEW,0.00,411.0,WeatherDisplay:10.37,2013-01-03 20:51:00,
2013-01-03 13:56:00,37.6,2.1,30.32,South,180,0.1,1.1,22,0.00,FEW,FEW,0.00,404.0,WeatherDisplay:10.37,2013-01-03 20:56:00,
2013-01-03 14:01:00,37.5,2.0,30.32,SSE,157,0.2,2.0,22,0.00,FEW,FEW,0.00,396.0,WeatherDisplay:10.37,2013-01-03 21:01:00,
2013-01-03 14:06:00,37.3,0.9,30.31,SE,142,1.7,4.0,21,0.00,FEW,FEW,0.00,387.0,WeatherDisplay:10.37,2013-01-03 21:06:00,
2013-01-03 14:11:00,37.2,0.8,30.31,SE,142,1.3,3.0,21,0.00,FEW,FEW,0.00,376.0,WeatherDisplay:10.37,2013-01-03 21:11:00,
2013-01-03 14:16:00,37.3,0.9,30.31,SSW,201,1.8,4.6,21,0.00,FEW,FEW,0.00,367.0,WeatherDisplay:10.37,2013-01-03 21:16:00,
2013-01-03 14:21:00,37.3,0.9,30.30,SSW,200,0.2,1.1,21,0.00,FEW,FEW,0.00,357.0,WeatherDisplay:10.37,2013-01-03 21:21:00,
2013-01-03 14:26:00,37.6,1.1,30.31,SSW,202,1.5,3.4,21,0.00,FEW,FEW,0.00,350.0,WeatherDisplay:10.37,2013-01-03 21:26:00,
2013-01-03 14:31:00,37.8,1.3,30.31,SSW,202,1.1,3.4,21,0.00,FEW,FEW,0.00,339.0,WeatherDisplay:10.37,2013-01-03 21:31:00,
2013-01-03 14:36:00,37.8,1.3,30.31,SSW,202,0.0,0.0,21,0.00,FEW,FEW,0.00,329.0,WeatherDisplay:10.37,2013-01-03 21:36:00,
2013-01-03 14:41:00,38.2,1.6,30.31,SSW,202,0.3,2.3,21,0.00,FEW,FEW,0.00,316.0,WeatherDisplay:10.37,2013-01-03 21:41:00,
2013-01-03 14:46:00,37.5,1.0,30.31,SSW,202,0.0,0.0,21,0.00,FEW,FEW,0.00,304.0,WeatherDisplay:10.37,2013-01-03 21:46:00,
2013-01-03 14:51:00,37.7,1.2,30.31,SSE,150,0.0,1.1,21,0.00,FEW,FEW,0.00,294.0,WeatherDisplay:10.37,2013-01-03 21:51:00,
2013-01-03 14:56:00,37.8,2.3,30.31,SSE,155,1.6,3.4,22,0.00,FEW,FEW,0.00,281.0,WeatherDisplay:10.37,2013-01-03 21:56:00,
2013-01-03 15:01:00,37.7,1.2,30.31,South,171,0.1,1.1,21,0.00,FEW,FEW,0.00,272.0,WeatherDisplay:10.37,2013-01-03 22:01:00,
2013-01-03 15:06:00,37.7,1.2,30.31,South,171,0.4,2.0,21,0.00,FEW,FEW,0.00,260.0,WeatherDisplay:10.37,2013-01-03 22:06:00,
2013-01-03 15:11:00,37.8,1.3,30.31,SSE,167,1.3,3.4,21,0.00,FEW,FEW,0.00,248.0,WeatherDisplay:10.37,2013-01-03 22:11:00,
2013-01-03 15:16:00,37.6,1.1,30.31,SSE,165,0.3,1.1,21,0.00,FEW,FEW,0.00,234.0,WeatherDisplay:10.37,2013-01-03 22:16:00,
2013-01-03 15:21:00,37.7,1.2,30.31,SSE,165,0.9,3.4,21,0.00,FEW,FEW,0.00,221.0,WeatherDisplay:10.37,2013-01-03 22:21:00,
2013-01-03 15:26:00,37.8,1.3,30.31,SSE,165,0.3,2.3,21,0.00,FEW,FEW,0.00,209.0,WeatherDisplay:10.37,2013-01-03 22:26:00,
2013-01-03 15:31:00,37.8,1.3,30.31,SSE,159,1.5,3.4,21,0.00,FEW,FEW,0.00,197.0,WeatherDisplay:10.37,2013-01-03 22:31:00,
2013-01-03 15:36:00,37.7,1.2,30.31,SSE,159,0.3,1.1,21,0.00,FEW,FEW,0.00,185.0,WeatherDisplay:10.37,2013-01-03 22:36:00,
2013-01-03 15:41:00,37.8,1.3,30.31,SSE,159,2.4,3.4,21,0.00,FEW,FEW,0.00,174.0,WeatherDisplay:10.37,2013-01-03 22:41:00,
2013-01-03 15:46:00,37.7,1.2,30.31,SSE,153,2.1,3.4,21,0.00,FEW,FEW,0.00,160.0,WeatherDisplay:10.37,2013-01-03 22:46:00,
2013-01-03 15:51:00,37.5,1.0,30.31,ESE,103,2.2,3.4,21,0.00,FEW,FEW,0.00,142.0,WeatherDisplay:10.37,2013-01-03 22:51:00,
2013-01-03 15:56:00,37.3,0.9,30.33,ESE,103,0.5,2.3,21,0.00,FEW,FEW,0.00,123.0,WeatherDisplay:10.37,2013-01-03 22:56:00,
2013-01-03 16:01:00,37.1,1.7,30.33,ESE,103,0.9,3.4,22,0.00,CLR,CLR,0.00,105.0,WeatherDisplay:10.37,2013-01-03 23:01:00,
2013-01-03 16:06:00,36.9,0.5,30.34,ESE,103,0.0,0.0,21,0.00,CLR,CLR,0.00,91.0,WeatherDisplay:10.37,2013-01-03 23:06:00,
2013-01-03 16:11:00,36.8,0.4,30.34,ESE,103,0.8,2.3,21,0.00,CLR,CLR,0.00,79.0,WeatherDisplay:10.37,2013-01-03 23:11:00,
2013-01-03 16:16:00,36.6,1.3,30.34,ESE,102,0.0,0.0,22,0.00,CLR,CLR,0.00,65.0,WeatherDisplay:10.37,2013-01-03 23:16:00,
2013-01-03 16:21:00,36.3,0.0,30.36,ESE,102,0.0,1.1,21,0.00,CLR,CLR,0.00,47.0,WeatherDisplay:10.37,2013-01-03 23:21:00,
2013-01-03 16:26:00,36.2,0.9,30.36,ESE,103,0.0,0.0,22,0.00,CLR,CLR,0.00,14.0,WeatherDisplay:10.37,2013-01-03 23:26:00,
2013-01-03 16:31:00,36.3,1.0,30.36,ESE,103,0.0,0.0,22,0.00,CLR,CLR,0.00,12.0,WeatherDisplay:10.37,2013-01-03 23:31:00,
2013-01-03 16:36:00,36.2,0.9,30.36,ESE,103,0.0,1.0,22,0.00,CLR,CLR,0.00,11.0,WeatherDisplay:10.37,2013-01-03 23:36:00,
2013-01-03 16:41:00,36.0,0.8,30.36,ESE,103,0.3,1.1,22,0.00,CLR,CLR,0.00,7.0,WeatherDisplay:10.37,2013-01-03 23:41:00,
2013-01-03 16:46:00,35.6,2.3,30.36,ESE,102,0.4,2.3,24,0.00,CLR,CLR,0.00,7.0,WeatherDisplay:10.37,2013-01-03 23:46:00,
2013-01-03 16:51:00,35.1,2.7,30.36,ESE,102,0.1,1.1,25,0.00,CLR,CLR,0.00,0.0,WeatherDisplay:10.37,2013-01-03 23:51:00,
2013-01-03 16:56:00,34.4,2.1,30.36,ESE,103,0.4,2.0,25,0.00,CLR,CLR,0.00,0.0,WeatherDisplay:10.37,2013-01-03 23:56:00,
2013-01-03 17:01:00,33.9,2.6,30.38,ESE,102,0.2,2.3,26,0.00,CLR,CLR,0.00,0.0,WeatherDisplay:10.37,2013-01-04 00:01:00,
2013-01-03 17:06:00,33.4,2.1,30.39,ESE,102,0.6,2.3,26,0.00,CLR,CLR,0.00,0.0,WeatherDisplay:10.37,2013-01-04 00:06:00,
2013-01-03 17:11:00,33.0,2.6,30.40,ESE,102,0.0,1.1,27,0.00,CLR,CLR,0.00,0.0,WeatherDisplay:10.37,2013-01-04 00:11:00,
2013-01-03 17:16:00,32.6,3.0,30.40,ESE,103,0.0,0.0,28,0.00,CLR,CLR,0.00,0.0,WeatherDisplay:10.37,2013-01-04 00:16:00,
2013-01-03 17:21:00,32.2,2.7,30.40,ESE,102,0.8,2.3,28,0.00,CLR,CLR,0.00,0.0,WeatherDisplay:10.37,2013-01-04 00:21:00,
2013-01-03 17:26:00,31.9,3.2,30.40,ESE,102,0.2,1.1,29,0.00,CLR,CLR,0.00,0.0,WeatherDisplay:10.37,2013-01-04 00:26:00,
2013-01-03 17:31:00,31.5,2.1,30.40,ESE,103,0.0,1.1,28,0.00,CLR,CLR,0.00,0.0,WeatherDisplay:10.37,2013-01-04 00:31:00,
2013-01-03 17:36:00,31.2,2.6,30.41,ESE,103,0.7,2.0,29,0.00,CLR,CLR,0.00,0.0,WeatherDisplay:10.37,2013-01-04 00:36:00,
2013-01-03 17:41:00,31.0,3.1,30.41,ESE,103,0.0,0.0,30,0.00,CLR,CLR,0.00,0.0,WeatherDisplay:10.37,2013-01-04 00:41:00,
2013-01-03 17:46:00,30.7,2.9,30.41,ESE,102,0.4,1.1,30,0.00,CLR,CLR,0.00,0.0,WeatherDisplay:10.37,2013-01-04 00:46:00,
2013-01-03 17:51:00,30.5,2.7,30.42,ESE,103,0.0,0.0,30,0.00,CLR,CLR,0.00,0.0,WeatherDisplay:10.37,2013-01-04 00:51:00,
2013-01-03 17:56:00,30.3,2.5,30.42,ESE,102,0.0,0.0,30,0.00,CLR,CLR,0.00,0.0,WeatherDisplay:10.37,2013-01-04 00:56:00,
2013-01-03 18:01:00,30.1,2.3,30.42,ESE,103,0.0,0.0,30,0.00,CLR,CLR,0.00,0.0,WeatherDisplay:10.37,2013-01-04 01:01:00,
2013-01-03 18:06:00,30.0,3.7,30.41,ESE,103,1.1,2.3,32,0.00,CLR,CLR,0.00,0.0,WeatherDisplay:10.37,2013-01-04 01:06:00,
2013-01-03 18:11:00,29.8,3.5,30.41,ESE,103,0.0,0.0,32,0.00,CLR,CLR,0.00,0.0,WeatherDisplay:10.37,2013-01-04 01:11:00,
2013-01-03 18:16:00,29.7,3.4,30.41,ESE,103,0.2,2.0,32,0.00,CLR,CLR,0.00,0.0,WeatherDisplay:10.37,2013-01-04 01:16:00,
2013-01-03 18:21:00,29.6,4.0,30.41,ESE,102,0.5,2.3,33,0.00,CLR,CLR,0.00,0.0,WeatherDisplay:10.37,2013-01-04 01:21:00,
2013-01-03 18:26:00,29.4,3.8,30.42,ESE,102,0.9,2.3,33,0.00,CLR,CLR,0.00,0.0,WeatherDisplay:10.37,2013-01-04 01:26:00,
2013-01-03 18:31:00,29.2,4.3,30.42,ESE,103,0.0,0.0,34,0.00,CLR,CLR,0.00,0.0,WeatherDisplay:10.37,2013-01-04 01:31:00,
2013-01-03 18:36:00,29.0,4.1,30.42,ESE,102,0.3,1.1,34,0.00,CLR,CLR,0.00,0.0,WeatherDisplay:10.37,2013-01-04 01:36:00,
2013-01-03 18:41:00,28.8,3.9,30.42,ESE,103,0.0,0.0,34,0.00,CLR,CLR,0.00,0.0,WeatherDisplay:10.37,2013-01-04 01:41:00,
2013-01-03 18:46:00,28.7,3.8,30.42,ESE,103,0.7,2.3,34,0.00,CLR,CLR,0.00,0.0,WeatherDisplay:10.37,2013-01-04 01:46:00,
2013-01-03 18:51:00,28.5,4.9,30.42,ESE,103,0.0,1.1,36,0.00,CLR,CLR,0.00,0.0,WeatherDisplay:10.37,2013-01-04 01:51:00,
2013-01-03 18:56:00,28.4,4.2,30.42,ESE,103,0.0,0.0,35,0.00,CLR,CLR,0.00,0.0,WeatherDisplay:10.37,2013-01-04 01:56:00,
2013-01-03 19:01:00,28.2,4.6,30.42,ESE,103,0.0,0.0,36,0.00,CLR,CLR,0.00,0.0,WeatherDisplay:10.37,2013-01-04 02:01:00,
2013-01-03 19:06:00,28.0,3.8,30.42,ESE,102,0.7,2.3,35,0.00,CLR,CLR,0.00,0.0,WeatherDisplay:10.37,2013-01-04 02:06:00,
2013-01-03 19:11:00,27.8,3.0,30.42,SE,134,1.5,3.4,34,0.00,CLR,CLR,0.00,0.0,WeatherDisplay:10.37,2013-01-04 02:11:00,
2013-01-03 19:16:00,27.7,2.9,30.42,SE,143,0.6,3.4,34,0.00,CLR,CLR,0.00,0.0,WeatherDisplay:10.37,2013-01-04 02:16:00,
2013-01-03 19:21:00,27.6,2.2,30.42,SSE,147,0.5,3.0,33,0.00,CLR,CLR,0.00,0.0,WeatherDisplay:10.37,2013-01-04 02:21:00,
2013-01-03 19:26:00,27.5,2.1,30.42,SSE,153,0.2,2.3,33,0.00,CLR,CLR,0.00,0.0,WeatherDisplay:10.37,2013-01-04 02:26:00,
2013-01-03 19:31:00,27.4,3.3,30.44,SSE,154,1.3,3.4,35,0.00,CLR,CLR,0.00,0.0,WeatherDisplay:10.37,2013-01-04 02:31:00,
2013-01-03 19:36:00,27.3,4.4,30.44,SSE,153,0.9,3.4,37,0.00,CLR,CLR,0.00,0.0,WeatherDisplay:10.37,2013-01-04 02:36:00,
2013-01-03 19:41:00,27.1,4.2,30.43,SSE,152,3.8,4.6,37,0.00,CLR,CLR,0.00,0.0,WeatherDisplay:10.37,2013-01-04 02:41:00,
2013-01-03 19:46:00,26.7,4.5,30.44,SSE,151,3.4,4.6,38,0.00,CLR,CLR,0.00,0.0,WeatherDisplay:10.37,2013-01-04 02:46:00,
2013-01-03 19:51:00,26.1,3.9,30.43,SSE,150,3.4,4.6,38,0.00,CLR,CLR,0.00,0.0,WeatherDisplay:10.37,2013-01-04 02:51:00,
2013-01-03 19:56:00,25.5,3.9,30.43,SSE,150,2.2,4.6,39,0.00,CLR,CLR,0.00,0.0,WeatherDisplay:10.37,2013-01-04 02:56:00,
2013-01-03 20:01:00,24.9,3.9,30.44,SSE,148,4.4,6.9,40,0.00,CLR,CLR,0.00,0.0,WeatherDisplay:10.37,2013-01-04 03:01:00,
2013-01-03 20:06:00,24.2,3.9,30.42,SSE,150,2.5,3.4,41,0.00,CLR,CLR,0.00,0.0,WeatherDisplay:10.37,2013-01-04 03:06:00,
2013-01-03 20:11:00,23.5,3.7,30.42,SSE,148,3.6,4.6,42,0.00,CLR,CLR,0.00,0.0,WeatherDisplay:10.37,2013-01-04 03:11:00,
2013-01-03 20:16:00,22.9,3.7,30.43,SSE,148,3.0,3.4,43,0.00,CLR,CLR,0.00,0.0,WeatherDisplay:10.37,2013-01-04 03:16:00,
2013-01-03 20:21:00,22.4,3.2,30.43,SSE,148,2.2,3.4,43,0.00,CLR,CLR,0.00,0.0,WeatherDisplay:10.37,2013-01-04 03:21:00,
2013-01-03 20:26:00,22.0,3.4,30.43,SSE,148,2.0,3.4,44,0.00,CLR,CLR,0.00,0.0,WeatherDisplay:10.37,2013-01-04 03:26:00,
2013-01-03 20:31:00,21.5,3.4,30.43,SSE,148,2.0,3.4,45,0.00,CLR,CLR,0.00,0.0,WeatherDisplay:10.37,2013-01-04 03:31:00,
2013-01-03 20:36:00,21.2,3.6,30.44,SSE,148,2.5,4.0,46,0.00,CLR,CLR,0.00,0.0,WeatherDisplay:10.37,2013-01-04 03:36:00,
2013-01-03 20:41:00,20.8,3.2,30.44,SSE,148,3.7,4.6,46,0.00,CLR,CLR,0.00,0.0,WeatherDisplay:10.37,2013-01-04 03:41:00,
2013-01-03 20:46:00,20.4,3.3,30.44,SSE,148,2.6,4.6,47,0.00,CLR,CLR,0.00,0.0,WeatherDisplay:10.37,2013-01-04 03:46:00,
2013-01-03 20:51:00,20.1,3.1,30.44,SSE,148,2.1,5.0,47,0.00,CLR,CLR,0.00,0.0,WeatherDisplay:10.37,2013-01-04 03:51:00,
2013-01-03 20:56:00,19.8,2.8,30.44,SSE,148,1.7,4.0,47,0.00,CLR,CLR,0.00,0.0,WeatherDisplay:10.37,2013-01-04 03:56:00,
2013-01-03 21:01:00,19.5,3.0,30.44,SSE,148,2.3,4.0,48,0.00,CLR,CLR,0.00,0.0,WeatherDisplay:10.37,2013-01-04 04:01:00,
2013-01-03 21:06:00,19.1,2.6,30.42,SSE,148,3.5,4.6,48,0.00,CLR,CLR,0.00,0.0,WeatherDisplay:10.37,2013-01-04 04:06:00,
2013-01-03 21:11:00,18.7,2.2,30.42,SE,146,3.6,4.6,48,0.00,CLR,CLR,0.00,0.0,WeatherDisplay:10.37,2013-01-04 04:11:00,
2013-01-03 21:16:00,18.4,2.4,30.43,SSE,148,1.9,3.4,49,0.00,CLR,CLR,0.00,0.0,WeatherDisplay:10.37,2013-01-04 04:16:00,
2013-01-03 21:21:00,18.1,2.1,30.43,SSE,148,3.8,4.6,49,0.00,CLR,CLR,0.00,0.0,WeatherDisplay:10.37,2013-01-04 04:21:00,
2013-01-03 21:26:00,17.9,1.9,30.43,SSE,149,1.2,3.0,49,0.00,CLR,CLR,0.00,0.0,WeatherDisplay:10.37,2013-01-04 04:26:00,
2013-01-03 21:31:00,17.7,2.2,30.43,SSE,148,3.0,4.6,50,0.00,CLR,CLR,0.00,0.0,WeatherDisplay:10.37,2013-01-04 04:31:00,
2013-01-03 21:36:00,17.5,2.0,30.43,SSE,148,3.2,4.6,50,0.00,CLR,CLR,0.00,0.0,WeatherDisplay:10.37,2013-01-04 04:36:00,
2013-01-03 21:41:00,17.3,1.8,30.43,SSE,149,2.2,3.4,50,0.00,CLR,CLR,0.00,0.0,WeatherDisplay:10.37,2013-01-04 04:41:00,
2013-01-03 21:46:00,17.1,1.6,30.43,SSE,148,3.0,3.4,50,0.00,CLR,CLR,0.00,0.0,WeatherDisplay:10.37,2013-01-04 04:46:00,
2013-01-03 21:51:00,17.0,1.5,30.43,SSE,148,3.6,5.8,50,0.00,CLR,CLR,0.00,0.0,WeatherDisplay:10.37,2013-01-04 04:51:00,
2013-01-03 21:56:00,16.9,1.9,30.43,SSE,148,3.3,5.8,51,0.00,CLR,CLR,0.00,0.0,WeatherDisplay:10.37,2013-01-04 04:56:00,
2013-01-03 22:00:00,16.8,1.8,30.43,SSE,148,3.3,4.0,51,0.00,CLR,CLR,0.00,0.0,WeatherDisplay:10.37,2013-01-04 05:00:00,
2013-01-03 22:05:00,16.7,1.7,30.39,SSE,149,3.1,4.0,51,0.00,CLR,CLR,0.00,0.0,WeatherDisplay:10.37,2013-01-04 05:05:00,
2013-01-03 22:10:00,16.6,2.0,30.39,SSE,148,3.9,5.0,52,0.00,CLR,CLR,0.00,0.0,WeatherDisplay:10.37,2013-01-04 05:10:00,
2013-01-03 22:15:00,16.5,1.9,30.39,SSE,148,3.4,3.4,52,0.00,CLR,CLR,0.00,0.0,WeatherDisplay:10.37,2013-01-04 05:15:00,
2013-01-03 22:20:00,16.4,1.8,30.41,SSE,148,3.7,4.6,52,0.00,CLR,CLR,0.00,0.0,WeatherDisplay:10.37,2013-01-04 05:20:00,
2013-01-03 22:25:00,16.3,1.3,30.41,SE,142,5.2,8.1,51,0.00,CLR,CLR,0.00,0.0,WeatherDisplay:10.37,2013-01-04 05:25:00,
2013-01-03 22:30:00,16.2,1.6,30.41,SE,144,3.2,5.8,52,0.00,CLR,CLR,0.00,0.0,WeatherDisplay:10.37,2013-01-04 05:30:00,
2013-01-03 22:35:00,16.1,1.1,30.41,SSE,148,2.6,10.3,51,0.00,CLR,CLR,0.00,0.0,WeatherDisplay:10.37,2013-01-04 05:35:00,
2013-01-03 22:40:00,16.0,1.4,30.41,SSE,150,2.8,4.6,52,0.00,CLR,CLR,0.00,0.0,WeatherDisplay:10.37,2013-01-04 05:40:00,
2013-01-03 22:45:00,15.9,1.4,30.41,SSE,149,2.7,4.0,52,0.00,CLR,CLR,0.00,0.0,WeatherDisplay:10.37,2013-01-04 05:45:00,
2013-01-03 22:50:00,15.8,1.3,30.41,SSE,148,3.7,5.8,52,0.00,CLR,CLR,0.00,0.0,WeatherDisplay:10.37,2013-01-04 05:50:00,
2013-01-03 22:55:00,15.8,1.3,30.41,SSE,148,4.2,4.6,52,0.00,CLR,CLR,0.00,0.0,WeatherDisplay:10.37,2013-01-04 05:55:00,
2013-01-03 23:00:00,15.7,1.2,30.40,SSE,148,2.6,4.0,52,0.00,CLR,CLR,0.00,0.0,WeatherDisplay:10.37,2013-01-04 06:00:00,
2013-01-03 23:05:00,15.6,1.1,30.38,SSE,150,2.2,4.0,52,0.00,CLR,CLR,0.00,0.0,WeatherDisplay:10.37,2013-01-04 06:05:00,
2013-01-03 23:10:00,15.6,1.1,30.38,SSE,149,3.0,4.6,52,0.00,CLR,CLR,0.00,0.0,WeatherDisplay:10.37,2013-01-04 06:10:00,
2013-01-03 23:15:00,15.5,1.0,30.38,SSE,149,3.0,4.6,52,0.00,CLR,CLR,0.00,0.0,WeatherDisplay:10.37,2013-01-04 06:15:00,
2013-01-03 23:20:00,15.5,1.0,30.38,SSE,149,2.8,4.6,52,0.00,CLR,CLR,0.00,0.0,WeatherDisplay:10.37,2013-01-04 06:20:00,
2013-01-03 23:25:00,15.4,0.9,30.38,SSE,149,2.4,4.0,52,0.00,CLR,CLR,0.00,0.0,WeatherDisplay:10.37,2013-01-04 06:25:00,
2013-01-03 23:30:00,15.4,0.9,30.38,SSE,149,2.9,3.4,52,0.00,CLR,CLR,0.00,0.0,WeatherDisplay:10.37,2013-01-04 06:30:00,
2013-01-03 23:35:00,15.4,0.9,30.38,SSE,151,2.3,3.4,52,0.00,CLR,CLR,0.00,0.0,WeatherDisplay:10.37,2013-01-04 06:35:00,
2013-01-03 23:40:00,15.3,0.8,30.38,SSE,150,3.9,5.8,52,0.00,CLR,CLR,0.00,0.0,WeatherDisplay:10.37,2013-01-04 06:40:00,
2013-01-03 23:45:00,15.3,0.8,30.38,SSE,148,5.7,9.2,52,0.00,CLR,CLR,0.00,0.0,WeatherDisplay:10.37,2013-01-04 06:45:00,
2013-01-03 23:50:00,15.3,0.8,30.38,SSE,149,2.9,3.4,52,0.00,CLR,CLR,0.00,0.0,WeatherDisplay:10.37,2013-01-04 06:50:00,
2013-01-03 23:55:00,15.2,0.3,30.37,SE,144,3.0,4.6,51,0.00,CLR,CLR,0.00,0.0,WeatherDisplay:10.37,2013-01-04 06:55:00,